Location: Tr�vern
(48.0333°N, 4.6000°W)
Time: 02:51:20
(UTC+00:00)

Cosmos 1743 - Pass Details

Date: 14 July 2020
Orbit: 511 x 526 km, 82.6° (Epoch: 04 August)

Event Time Altitude Azimuth Distance (km) Brightness Sun altitude
Exits shadow 03:02:40 - 171° (S) 1,820 5.1 -11.8°
Reaches altitude 10° 03:02:52 10° 171° (S) 1,734 5.0 -11.8°
Maximum altitude 03:06:34 51° 95° (E) 656 3.4 -11.4°
Drops below altitude 10° 03:10:18 10° 19° (NNE) 1,757 6.7 -11.1°
Sets 03:12:29 0° 14° (NNE) 2,652 7.6 -10.8°
